Find Starlink 3075

NORAD ID: 49409 Int'l Des: 2021-104 Owner: SPXS Country: US Constellation: starlink operational
LEOCIRCULAR

リアルタイム位置

3D地球を読み込み中...

Starlink 3075について

説明を読み込み中...

次回通過

Passes for default location (London). Set your location on the main map for personalized predictions.

高度履歴

Loading altitude history...

軌道要素

1 49409U 21104B 26125.56063042 .00000465 00000-0 47272-4 0 9997
2 49409 53.2184 333.8170 0001277 88.6462 271.4676 15.08838723247222
Epoch: May 5, 2026 • Age: 4 hours

現在のステータス

高度 548.3 km
速度 7.59 km/s
衛星直下点 -27.20°S, 48.19°E
打ち上げ日 Nov 13, 2021
運用期間 4.4 years
タイプ internet

技術仕様

分類 Payload
質量 290.00 kg
乾燥質量 270.00 kg
総質量 290.00 kg
長さ 0.20 m
直径 2.80 m
スパン 9.00 m
形状 Box + pan
製造者 SPXS
バスタイプ Starlink
フェーズステータス In Orbit
所有者/国 SPXS/US

Most Searched